Time,TemperatureF,DewpointF,PressureIn,WindDirection,WindDirectionDegrees,WindSpeedMPH,WindSpeedGustMPH,Humidity,HourlyPrecipIn,Conditions,Clouds,dailyrainin,SolarRadiationWatts/m^2,SoftwareType,DateUTC
2013-02-18 00:01:00,21.0,15.0,30.05,ENE,72,0.0,3.0,76,-99.99,,,-99.99,0.000000,,2013-02-18 08:01:00,
2013-02-18 00:10:00,20.0,15.0,30.07,SE,143,0.0,1.0,83,-99.99,,,-99.99,0.000000,,2013-02-18 08:10:00,
2013-02-18 00:52:00,20.0,15.0,30.07,SE,143,0.0,1.0,83,-99.99,,,-99.99,0.000000,,2013-02-18 08:52:00,
2013-02-18 01:02:00,20.0,15.0,30.07,SE,143,0.0,1.0,83,-99.99,,,-99.99,0.000000,,2013-02-18 09:02:00,
2013-02-18 01:10:00,20.0,13.0,30.06,NW,318,5.0,6.0,74,-99.99,,,-99.99,0.000000,,2013-02-18 09:10:00,
2013-02-18 01:51:00,20.0,13.0,30.06,NW,318,5.0,6.0,74,-99.99,,,-99.99,0.000000,,2013-02-18 09:51:00,
2013-02-18 02:01:00,20.0,13.0,30.06,NW,318,5.0,6.0,74,-99.99,,,-99.99,0.000000,,2013-02-18 10:01:00,
2013-02-18 02:10:00,20.0,11.0,30.05,NNW,327,3.0,5.0,68,-99.99,,,-99.99,0.000000,,2013-02-18 10:10:00,
2013-02-18 02:52:00,20.0,11.0,30.05,NNW,327,3.0,5.0,68,-99.99,,,-99.99,0.000000,,2013-02-18 10:52:00,
2013-02-18 03:01:00,20.0,11.0,30.05,NNW,327,3.0,5.0,68,-99.99,,,-99.99,0.000000,,2013-02-18 11:01:00,
2013-02-18 03:10:00,15.0,12.0,30.06,SSE,165,2.0,3.0,87,-99.99,,,-99.99,0.000000,,2013-02-18 11:10:00,
2013-02-18 03:52:00,15.0,12.0,30.06,SSE,165,2.0,3.0,87,-99.99,,,-99.99,0.000000,,2013-02-18 11:52:00,
2013-02-18 04:10:00,16.0,12.0,30.05,SE,138,2.0,3.0,86,-99.99,,,-99.99,0.000000,,2013-02-18 12:10:00,
2013-02-18 04:52:00,16.0,12.0,30.05,SE,138,2.0,3.0,86,-99.99,,,-99.99,0.000000,,2013-02-18 12:52:00,
2013-02-18 05:02:00,16.0,12.0,30.05,SE,138,2.0,3.0,86,-99.99,,,-99.99,0.000000,,2013-02-18 13:02:00,
2013-02-18 05:10:00,16.0,12.0,30.06,East,93,1.0,1.0,84,-99.99,,,-99.99,0.000000,,2013-02-18 13:10:00,
2013-02-18 05:52:00,16.0,12.0,30.06,East,93,1.0,1.0,84,-99.99,,,-99.99,0.000000,,2013-02-18 13:52:00,
2013-02-18 06:02:00,16.0,12.0,30.06,East,93,1.0,1.0,84,-99.99,,,-99.99,0.000000,,2013-02-18 14:02:00,
2013-02-18 06:10:00,15.0,12.0,30.07,West,268,2.0,2.0,88,-99.99,,,-99.99,0.000000,,2013-02-18 14:10:00,
2013-02-18 06:53:00,15.0,12.0,30.07,West,268,2.0,2.0,88,-99.99,,,-99.99,0.000000,,2013-02-18 14:53:00,
2013-02-18 07:02:00,15.0,12.0,30.07,West,268,2.0,2.0,88,-99.99,,,-99.99,0.000000,,2013-02-18 15:02:00,
2013-02-18 07:10:00,17.0,12.0,30.07,SE,135,3.0,5.0,82,-99.99,,,-99.99,120.000000,,2013-02-18 15:10:00,
2013-02-18 07:52:00,17.0,12.0,30.07,SE,135,3.0,5.0,82,-99.99,,,-99.99,120.000000,,2013-02-18 15:52:00,
2013-02-18 08:02:00,17.0,12.0,30.07,SE,135,3.0,5.0,82,-99.99,,,-99.99,120.000000,,2013-02-18 16:02:00,
2013-02-18 08:10:00,20.0,14.0,30.08,North,8,0.0,1.0,80,-99.99,,,-99.99,180.000000,,2013-02-18 16:10:00,
2013-02-18 08:52:00,20.0,14.0,30.08,North,8,0.0,1.0,80,-99.99,,,-99.99,180.000000,,2013-02-18 16:52:00,
2013-02-18 09:03:00,20.0,14.0,30.08,North,8,0.0,1.0,80,-99.99,,,-99.99,180.000000,,2013-02-18 17:03:00,
2013-02-18 09:10:00,23.0,15.0,30.08,NNE,20,2.0,3.0,71,-99.99,,,-99.99,490.000000,,2013-02-18 17:10:00,
2013-02-18 09:52:00,23.0,15.0,30.08,NNE,20,2.0,3.0,71,-99.99,,,-99.99,490.000000,,2013-02-18 17:52:00,
2013-02-18 10:02:00,23.0,15.0,30.08,NNE,20,2.0,3.0,71,-99.99,,,-99.99,490.000000,,2013-02-18 18:02:00,
2013-02-18 10:10:00,27.0,17.0,30.05,SSE,151,3.0,6.0,66,-99.99,,,-99.99,450.000000,,2013-02-18 18:10:00,
2013-02-18 10:52:00,27.0,17.0,30.05,SSE,151,3.0,6.0,66,-99.99,,,-99.99,450.000000,,2013-02-18 18:52:00,
2013-02-18 11:02:00,27.0,17.0,30.05,SSE,151,3.0,6.0,66,-99.99,,,-99.99,450.000000,,2013-02-18 19:02:00,
2013-02-18 11:10:00,29.0,17.0,30.03,NNW,348,3.0,5.0,59,-99.99,,,-99.99,540.000000,,2013-02-18 19:10:00,
2013-02-18 11:52:00,29.0,17.0,30.03,NNW,348,3.0,5.0,59,-99.99,,,-99.99,540.000000,,2013-02-18 19:52:00,
2013-02-18 12:02:00,29.0,17.0,30.03,NNW,348,3.0,5.0,59,-99.99,,,-99.99,540.000000,,2013-02-18 20:02:00,
2013-02-18 12:10:00,34.0,19.0,30.00,SSE,148,3.0,7.0,53,-99.99,,,-99.99,740.000000,,2013-02-18 20:10:00,
2013-02-18 12:52:00,34.0,19.0,30.00,SSE,148,3.0,7.0,53,-99.99,,,-99.99,740.000000,,2013-02-18 20:52:00,
2013-02-18 13:02:00,34.0,19.0,30.00,SSE,148,3.0,7.0,53,-99.99,,,-99.99,740.000000,,2013-02-18 21:02:00,
2013-02-18 13:10:00,36.0,19.0,29.97,ENE,61,3.0,6.0,51,-99.99,,,-99.99,710.000000,,2013-02-18 21:10:00,
2013-02-18 13:52:00,36.0,19.0,29.97,ENE,61,3.0,6.0,51,-99.99,,,-99.99,710.000000,,2013-02-18 21:52:00,
2013-02-18 14:02:00,36.0,19.0,29.97,ENE,61,3.0,6.0,51,-99.99,,,-99.99,710.000000,,2013-02-18 22:02:00,
2013-02-18 14:10:00,38.0,19.0,29.95,WNW,296,3.0,6.0,45,-99.99,,,-99.99,540.000000,,2013-02-18 22:10:00,
2013-02-18 14:52:00,38.0,19.0,29.95,WNW,296,3.0,6.0,45,-99.99,,,-99.99,540.000000,,2013-02-18 22:52:00,
2013-02-18 15:02:00,38.0,19.0,29.95,WNW,296,3.0,6.0,45,-99.99,,,-99.99,540.000000,,2013-02-18 23:02:00,
2013-02-18 15:10:00,39.0,18.0,29.93,North,4,5.0,7.0,43,-99.99,,,-99.99,290.000000,,2013-02-18 23:10:00,
2013-02-18 15:52:00,39.0,18.0,29.93,North,4,5.0,7.0,43,-99.99,,,-99.99,290.000000,,2013-02-18 23:52:00,
2013-02-18 16:02:00,39.0,18.0,29.93,North,4,5.0,7.0,43,-99.99,,,-99.99,290.000000,,2013-02-19 00:02:00,
2013-02-18 16:10:00,37.0,21.0,29.90,North,3,6.0,9.0,53,-99.99,,,-99.99,90.000000,,2013-02-19 00:10:00,
2013-02-18 16:53:00,37.0,21.0,29.90,North,3,6.0,9.0,53,-99.99,,,-99.99,90.000000,,2013-02-19 00:53:00,
2013-02-18 17:03:00,37.0,21.0,29.90,North,3,6.0,9.0,53,-99.99,,,-99.99,90.000000,,2013-02-19 01:03:00,
2013-02-18 17:53:00,34.0,22.0,29.87,NW,306,4.0,8.0,63,-99.99,,,-99.99,20.000000,,2013-02-19 01:53:00,
2013-02-18 18:02:00,34.0,22.0,29.87,NW,306,4.0,8.0,63,-99.99,,,-99.99,20.000000,,2013-02-19 02:02:00,
2013-02-18 18:10:00,32.0,21.0,29.87,NNW,340,9.0,13.0,64,-99.99,,,-99.99,0.000000,,2013-02-19 02:10:00,
2013-02-18 18:52:00,32.0,21.0,29.87,NNW,340,9.0,13.0,64,-99.99,,,-99.99,0.000000,,2013-02-19 02:52:00,
2013-02-18 19:04:00,32.0,21.0,29.87,NNW,340,9.0,13.0,64,-99.99,,,-99.99,0.000000,,2013-02-19 03:04:00,
2013-02-18 19:10:00,30.0,20.0,29.87,NNW,336,4.0,6.0,66,-99.99,,,-99.99,0.000000,,2013-02-19 03:10:00,
2013-02-18 19:52:00,30.0,20.0,29.87,NNW,336,4.0,6.0,66,-99.99,,,-99.99,0.000000,,2013-02-19 03:52:00,
2013-02-18 20:02:00,30.0,20.0,29.87,NNW,336,4.0,6.0,66,-99.99,,,-99.99,0.000000,,2013-02-19 04:02:00,
2013-02-18 20:10:00,29.0,20.0,29.87,NNW,346,4.0,6.0,67,-99.99,,,-99.99,0.000000,,2013-02-19 04:10:00,
2013-02-18 20:52:00,29.0,20.0,29.87,NNW,346,4.0,6.0,67,-99.99,,,-99.99,0.000000,,2013-02-19 04:52:00,
2013-02-18 21:01:00,29.0,20.0,29.87,NNW,346,4.0,6.0,67,-99.99,,,-99.99,0.000000,,2013-02-19 05:01:00,
2013-02-18 21:10:00,26.0,20.0,29.87,SSE,164,5.0,6.0,79,-99.99,,,-99.99,0.000000,,2013-02-19 05:10:00,
2013-02-18 21:52:00,26.0,20.0,29.87,SSE,164,5.0,6.0,79,-99.99,,,-99.99,0.000000,,2013-02-19 05:52:00,
2013-02-18 22:02:00,26.0,20.0,29.87,SSE,164,5.0,6.0,79,-99.99,,,-99.99,0.000000,,2013-02-19 06:02:00,
2013-02-18 23:10:00,25.0,20.0,29.83,West,276,3.0,5.0,83,-99.99,,,-99.99,0.000000,,2013-02-19 07:10:00,
2013-02-18 23:51:00,25.0,20.0,29.83,West,276,3.0,5.0,83,-99.99,,,-99.99,0.000000,,2013-02-19 07:51:00,